Temperature
17 17 16 16 15 15 14 14 14 13 13 13 13 13 12 12 12 13 13 13 13 13 13 13 13 13 13 13 13 13 13 13 13 12 12 12 12 12 13 13 14 14 14
16 16 16 16 15 15 14 14 13 13 13 12 12 12 12 12 12 12 12 12 12 12 12 12 12 12 12 12 13 13 13 13 13 12 12 12 12 12 13 13 13 13 13
15 16 16 16 15 15 14 14 13 13 12 12 12 12 12 12 12 12 12 12 12 12 12 12 12 12 12 12 12 12 12 12 12 12 12 12 12 12 12 12 13 13 13
14 14 15 15 15 15 14 14 13 12 12 12 12 12 11 11 11 11 11 11 11 11 12 12 12 12 12 12 12 12 12 12 12 12 12 12 12 12 12 12 12 12 12
12 13 14 14 14 14 14 13 13 12 12 12 11 11 11 11 11 11 11 11 11 11 11 11 11 12 12 12 12 12 12 12 12 12 12 12 11 11 11 11 11 11 11
11 11 12 13 13 14 13 13 13 12 12 11 11 11 11 11 11 11 11 11 11 11 11 11 11 11 11 11 12 12 12 13 12 12 12 11 11 11 11 11 11 11 11
10 10 11 11 12 12 12 13 12 12 12 11 11 11 11 11 11 10 10 11 11 11 11 11 11 11 11 11 11 11 11 11 12 12 11 11 11 11 11 11 11 11 10
9 9 10 10 10 11 11 12 12 12 12 11 11 11 11 10 10 10 10 10 10 11 11 11 11 11 11 11 11 11 11 11 11 11 11 10 10 10 10 10 10 10 10
9 9 9 9 9 10 10 11 11 11 11 11 11 11 11 10 10 10 10 11 11 11 11 11 11 11 11 11 11 11 11 10 10 10 10 10 10 10 10 10 10 10 9
9 9 9 8 8 9 9 10 10 11 11 11 11 11 11 11 10 10 11 11 11 11 11 11 11 11 11 11 11 11 11 10 10 10 10 10 9 9 9 9 9 9 9
9 8 8 8 8 8 9 9 9 10 11 11 11 11 11 11 10 10 11 11 11 11 11 11 11 11 11 11 11 11 11 10 10 10 9 9 9 9 9 9 8 8 8
8 8 8 8 8 7 8 8 9 9 10 11 11 11 11 11 11 11 10 11 11 11 10 10 10 10 10 10 10 10 10 10 10 9 9 9 9 8 8 8 8 8 8
8 8 8 8 7 7 7 8 8 9 10 10 11 11 10 10 11 10 10 10 10 10 10 10 10 10 10 10 10 10 9 9 9 9 9 8 8 8 8 8 7 7 7
7 8 8 7 7 7 7 7 7 8 9 10 10 11 11 10 11 10 10 10 10 10 10 10 10 10 10 10 9 9 9 9 9 8 8 8 8 8 7 7 7 7 7
7 7 7 7 7 7 7 7 7 8 9 10 11 11 11 11 11 11 11 10 10 10 10 10 9 9 9 9 9 9 8 8 8 8 8 8 8 7 7 7 7 7 7
6 6 7 7 7 6 6 7 7 8 9 10 11 12 12 12 11 11 11 11 10 10 10 10 9 9 9 9 9 9 8 8 8 8 8 7 7 7 7 7 7 7 6
5 6 6 6 6 6 6 6 6 7 9 9 10 11 12 12 11 11 11 11 10 10 10 10 9 9 9 9 9 9 8 8 8 8 7 7 7 7 7 7 7 6 6
4 5 5 6 6 6 6 6 6 7 8 9 9 10 11 11 11 11 11 10 10 10 10 10 10 9 9 9 9 9 9 8 8 8 8 7 7 7 7 7 6 6 6
4 5 5 6 6 6 6 6 6 7 8 9 9 9 10 11 11 11 11 10 10 10 10 10 10 10 10 10 9 9 9 9 8 8 8 7 7 7 7 6 6 6 6
4 4 5 5 6 6 6 6 6 7 8 9 9 9 9 10 10 10 10 10 10 10 10 10 10 10 10 10 10 9 9 9 8 8 8 8 7 7 7 7 6 6 6
3 4 5 5 6 6 6 6 7 7 8 9 9 10 10 10 10 10 10 10 10 10 10 10 10 10 10 10 10 10 9 9 9 9 8 8 8 7 7 7 6 6 5
4 4 5 5 6 6 6 6 7 8 8 9 9 10 10 10 10 10 10 11 11 11 11 10 10 10 10 10 10 10 10 9 9 9 9 8 8 8 7 7 7 6 6
4 5 5 6 6 6 6 7 7 8 9 9 10 10 10 10 10 11 11 11 11 11 10 10 10 10 10 10 10 10 10 10 10 9 9 9 9 8 8 8 7 7 6
5 5 5 6 6 6 6 7 8 8 9 9 10 10 10 10 11 11 11 11 11 11 10 10 10 10 10 10 10 10 10 10 10 10 9 9 9 9 8 8 8 7 7
5 5 6 6 6 6 7 8 8 9 9 10 10 11 11 11 11 11 11 11 11 11 10 10 10 10 10 11 11 10 10 10 10 10 10 9 9 9 9 8 8 8 7
5 6 6 6 7 7 7 8 9 9 10 10 11 11 11 11 11 11 11 11 11 11 10 10 10 10 10 11 11 11 10 10 10 10 10 10 10 9 9 9 9 8 7
Wind_Speed
7 7 8 8 7 6 6 6 6 6 7 8 10 11 11 11 10 7 6 5 3 2 3 4 4 4 3 3 3 3 4 5 7 4 4 4 5 7 7 8 10 10 11
9 9 10 9 8 8 8 7 5 6 6 7 8 9 9 10 9 7 5 2 1 2 2 3 3 3 4 4 5 6 7 7 9 9 4 4 6 6 7 8 8 9 10
10 10 11 10 10 10 9 7 5 5 5 5 6 7 8 8 8 7 6 5 6 6 6 5 5 6 6 6 8 9 8 9 8 9 5 4 6 5 7 8 9 7 8
12 11 12 12 12 11 9 7 6 5 4 4 4 5 5 6 7 7 8 8 9 9 9 8 7 7 8 9 10 10 10 10 9 10 8 6 5 4 5 6 7 7 7
13 13 13 13 11 10 9 8 7 5 4 2 2 3 4 3 5 6 8 9 9 10 10 9 9 11 11 9 10 9 10 10 9 10 8 7 5 5 5 3 4 4 6
12 13 13 13 11 10 10 9 7 6 4 2 1 1 2 2 5 7 7 8 8 9 9 9 10 12 16 16 15 12 10 11 11 9 8 8 5 4 4 4 4 4 4
12 12 12 13 11 10 9 9 9 8 6 5 4 2 2 1 4 7 8 7 7 7 7 7 9 10 11 12 15 16 14 13 11 9 11 7 4 3 4 7 6 6 4
12 11 11 12 12 10 8 10 10 8 8 7 6 5 4 3 5 7 8 7 7 7 6 6 8 7 7 11 12 12 11 9 8 9 9 6 4 3 3 4 4 4 4
12 11 11 10 12 10 9 10 10 9 9 8 7 8 7 6 8 9 9 6 7 7 6 5 7 8 10 14 13 13 11 9 11 13 12 11 11 9 5 5 5 6 5
13 12 10 10 10 11 10 10 9 9 10 10 9 9 9 8 10 11 10 7 7 6 6 6 8 9 10 11 12 12 12 8 8 9 10 10 10 11 11 6 5 5 3
13 12 11 10 9 10 9 9 10 11 11 11 11 9 8 9 11 13 12 7 8 7 6 5 5 11 13 12 11 10 11 9 9 10 9 8 8 8 8 7 6 6 5
12 12 12 10 10 10 9 10 9 12 13 12 11 9 6 8 10 12 13 11 10 8 7 5 6 12 14 14 11 13 14 10 8 8 8 7 6 6 6 7 8 8 7
13 13 12 11 9 8 8 10 9 10 12 12 12 11 9 7 8 12 13 13 12 7 7 10 12 14 14 12 14 13 10 8 8 8 7 5 3 3 4 4 6 6 8
14 13 11 10 10 9 7 7 7 8 12 13 13 13 11 9 8 8 8 9 11 10 9 11 13 13 11 11 10 8 6 6 7 7 5 4 3 4 5 4 4 5 6
13 13 11 10 9 9 8 7 8 9 12 14 15 15 15 13 13 16 14 11 10 11 10 6 6 6 6 6 6 6 5 5 6 4 5 5 5 5 4 4 4 5 5
12 11 9 8 8 7 8 9 11 13 15 18 17 17 16 16 19 19 18 18 18 18 12 8 7 7 8 7 6 5 4 5 5 5 5 5 5 6 5 4 4 5 5
12 11 9 8 8 8 7 7 9 8 10 15 18 19 17 19 21 20 18 19 19 18 9 9 8 8 7 7 6 5 5 4 4 5 5 5 5 5 4 4 4 4 4
11 12 11 9 8 8 7 7 8 7 6 8 11 16 19 21 21 21 21 16 11 9 9 11 10 9 8 7 7 6 6 5 4 5 5 5 4 4 4 4 4 4 3
10 8 8 8 8 8 7 7 8 8 8 10 9 10 14 17 18 21 20 11 14 12 10 10 10 9 8 8 8 7 7 7 6 5 5 5 4 4 4 4 4 4 3
9 13 12 8 8 8 7 8 8 7 8 11 14 13 12 11 10 12 11 10 12 12 11 10 9 9 8 8 9 8 7 7 7 5 5 5 4 4 4 5 4 3 2
7 9 12 9 8 8 7 8 8 7 9 11 13 15 19 16 15 15 14 12 12 12 11 10 9 9 8 8 9 10 10 8 8 7 6 5 5 4 4 4 4 4 3
7 7 7 7 7 7 7 7 7 8 10 13 12 13 18 14 14 14 14 13 12 11 11 10 9 9 9 10 11 11 10 9 9 8 7 7 6 5 5 5 5 4 4
6 7 7 7 7 8 8 7 7 8 10 12 13 14 15 13 13 13 14 13 11 10 9 10 9 9 9 9 11 12 12 12 11 11 10 8 7 7 6 6 7 6 6
6 7 7 7 6 6 7 6 7 9 10 12 14 14 15 14 13 14 13 12 11 10 10 10 10 12 14 11 11 13 14 14 14 12 13 11 10 9 8 8 8 9 8
5 5 6 6 6 6 6 6 8 9 11 12 13 13 14 13 13 12 12 11 12 11 12 11 9 11 14 16 14 15 16 17 16 14 13 11 12 12 11 10 9 9 9
5 5 6 5 5 5 5 6 8 10 12 12 12 12 13 13 12 12 11 11 11 10 11 10 11 12 13 15 17 18 18 18 19 18 14 10 12 12 12 11 13 11 11
Wind_Direction
291 275 267 261 255 253 256 265 278 291 304 315 322 323 323 322 318 309 296 282 248 215 190 185 186 175 171 167 146 135 119 115 116 89 58 52 64 76 71 73 73 71 70
312 287 268 260 253 250 253 259 269 286 301 313 324 330 337 339 336 335 335 342 63 89 103 125 116 123 115 115 114 112 108 106 118 112 78 60 65 71 75 70 67 70 70
323 306 284 266 252 247 245 246 255 273 295 315 329 339 344 349 354 2 17 42 54 58 61 74 84 96 94 97 101 104 105 106 103 110 99 70 67 60 70 68 63 58 62
327 317 299 278 259 247 238 232 236 250 275 306 324 339 348 2 17 30 47 57 58 56 56 58 65 82 98 105 104 105 108 105 103 104 99 82 68 54 70 74 70 56 49
328 325 313 295 272 250 235 225 223 228 240 268 312 351 358 14 40 52 63 70 70 67 59 59 72 87 89 97 112 113 114 110 105 102 97 88 72 64 65 62 80 72 55
324 323 322 313 289 258 236 221 213 212 210 204 222 24 23 49 67 68 77 79 76 77 76 72 78 83 86 84 87 89 102 114 113 105 98 94 84 76 74 72 70 65 48
313 317 324 323 309 278 245 220 212 204 195 190 189 167 143 114 103 88 81 86 84 80 80 84 91 90 92 95 84 77 74 82 98 110 104 101 96 93 97 87 76 74 62
302 308 316 323 319 304 264 231 216 199 192 189 188 178 167 170 147 119 100 88 84 76 76 94 104 97 102 106 98 87 77 70 79 91 100 96 95 97 96 100 100 89 67
291 295 304 314 318 312 291 253 222 201 192 189 186 180 174 176 169 149 125 107 95 79 69 75 102 103 113 114 107 102 93 81 76 82 82 79 74 71 97 103 89 81 59
280 283 288 295 306 306 299 278 235 208 196 186 185 185 179 178 180 165 140 126 112 99 77 65 76 100 113 119 120 119 113 108 106 90 72 59 61 57 54 68 92 93 77
273 276 279 282 289 295 300 291 244 214 193 183 182 183 181 179 179 172 155 141 134 122 106 89 80 97 102 104 108 116 127 124 108 98 86 74 66 60 57 58 62 79 82
273 274 275 276 285 300 305 302 263 216 193 183 177 175 179 178 176 178 166 151 143 130 125 115 103 100 100 101 102 113 115 110 105 98 90 79 71 64 60 63 66 68 70
274 272 272 274 274 278 292 301 280 223 195 184 181 181 181 178 180 174 164 151 140 124 129 127 115 104 96 94 100 104 105 107 106 103 97 83 68 54 68 71 60 65 65
268 268 267 269 274 272 280 289 280 239 199 186 184 183 178 175 173 164 157 145 132 122 121 113 101 92 89 89 86 84 87 99 110 109 102 89 82 79 67 65 63 57 59
266 265 264 263 266 271 276 278 275 257 215 191 187 182 178 181 184 169 160 159 155 145 134 119 113 113 108 101 94 91 93 100 100 103 108 104 93 86 75 66 69 68 65
265 264 260 258 261 264 275 286 272 255 222 203 189 179 183 177 165 165 161 156 149 146 138 143 145 145 144 140 131 116 109 111 114 119 116 113 109 104 97 85 80 78 71
254 258 259 259 258 260 266 277 286 266 211 192 184 177 172 161 159 161 153 147 149 147 146 158 162 163 161 156 151 144 140 135 131 132 127 125 121 116 112 105 98 87 73
253 259 260 256 254 254 259 266 274 254 200 182 182 175 164 159 156 148 137 131 150 165 166 170 172 173 171 168 165 156 146 144 142 141 137 136 135 130 125 120 113 103 84
252 255 255 255 252 251 255 263 264 246 205 178 164 166 163 149 141 147 149 158 170 178 176 176 178 178 179 177 173 167 163 163 160 156 153 151 150 142 136 134 127 115 99
249 257 259 255 252 252 257 262 256 236 200 178 173 166 154 144 150 164 174 171 174 179 179 180 182 183 182 179 175 172 171 172 171 173 170 166 163 160 156 155 154 148 133
246 255 263 263 250 246 252 255 248 222 191 178 173 168 166 170 170 175 182 181 180 181 181 181 181 182 181 178 177 178 180 185 186 187 184 179 173 170 168 168 170 171 164
243 249 251 253 248 245 251 249 239 204 182 174 165 163 169 171 173 177 183 187 186 182 180 179 182 183 182 181 180 182 187 192 194 194 194 190 185 181 175 178 182 184 187
242 247 252 250 243 245 254 248 221 188 177 169 162 163 174 176 174 178 183 185 181 177 175 177 180 185 187 186 185 186 192 199 201 197 196 195 194 192 189 192 194 194 201
242 247 250 249 242 247 252 234 196 178 171 165 164 167 175 177 176 177 179 178 177 176 176 180 186 190 189 188 191 197 202 203 200 200 199 200 200 201 199 201 203 205 207
248 250 249 247 247 251 244 211 182 173 167 163 165 168 174 176 175 175 175 175 174 176 179 182 188 193 196 195 196 202 203 198 197 199 200 204 208 206 205 207 207 206 205
256 255 255 250 245 242 223 189 174 165 161 162 164 167 171 174 174 173 172 172 175 177 180 186 194 197 198 202 206 205 200 199 200 199 200 205 210 213 210 213 212 208 206
Height
1481 1479 1477 1475 1473 1470 1467 1464 1460 1457 1453 1448 1444 1439 1434 1429 1425 1421 1417 1415 1414 1414 1414 1415 1416 1417 1419 1420 1422 1424 1426 1429 1431 1436 1439 1442 1445 1447 1448 1449 1450 1451 1452
1475 1473 1471 1469 1467 1465 1463 1460 1457 1453 1450 1446 1442 1437 1432 1427 1423 1419 1415 1413 1412 1411 1412 1413 1414 1415 1417 1419 1421 1423 1426 1429 1432 1436 1440 1444 1446 1448 1450 1451 1451 1452 1453
1470 1467 1465 1462 1461 1459 1458 1456 1453 1450 1447 1444 1440 1436 1431 1427 1422 1418 1415 1413 1412 1412 1412 1412 1414 1416 1418 1419 1422 1424 1428 1431 1435 1438 1442 1446 1448 1450 1451 1452 1453 1453 1454
1465 1461 1458 1455 1453 1453 1452 1450 1449 1447 1444 1442 1439 1435 1431 1427 1423 1419 1416 1415 1414 1414 1414 1415 1416 1418 1420 1422 1424 1427 1431 1434 1438 1441 1444 1447 1450 1451 1453 1454 1454 1455 1456
1460 1456 1452 1448 1446 1445 1445 1445 1444 1442 1441 1439 1437 1435 1432 1429 1425 1422 1419 1418 1418 1418 1418 1419 1421 1422 1423 1426 1428 1432 1435 1438 1441 1444 1447 1449 1452 1453 1454 1456 1456 1457 1457
1456 1451 1446 1442 1439 1438 1438 1439 1438 1438 1437 1437 1436 1434 1432 1430 1427 1425 1423 1422 1422 1423 1424 1425 1426 1427 1429 1432 1435 1438 1440 1442 1444 1446 1449 1451 1453 1455 1456 1457 1458 1458 1458
1452 1447 1442 1437 1433 1431 1431 1432 1433 1433 1433 1433 1433 1433 1432 1431 1429 1428 1427 1426 1426 1428 1429 1430 1431 1433 1435 1437 1439 1442 1445 1447 1449 1450 1451 1454 1455 1457 1458 1458 1459 1459 1460
1448 1443 1438 1433 1429 1426 1425 1425 1426 1428 1428 1429 1430 1430 1431 1431 1431 1430 1430 1430 1431 1433 1434 1436 1437 1438 1440 1442 1443 1445 1448 1450 1452 1454 1455 1456 1458 1459 1460 1460 1461 1461 1461
1442 1437 1433 1428 1424 1421 1419 1418 1419 1421 1423 1424 1426 1428 1429 1430 1431 1431 1432 1433 1434 1436 1437 1439 1440 1442 1444 1445 1447 1448 1450 1453 1455 1456 1458 1459 1460 1461 1461 1462 1462 1462 1462
1435 1431 1427 1423 1419 1415 1412 1411 1412 1414 1417 1419 1422 1424 1426 1428 1430 1431 1433 1434 1436 1437 1439 1440 1442 1444 1445 1447 1449 1450 1452 1455 1457 1458 1460 1461 1462 1462 1463 1463 1463 1463 1463
1428 1424 1420 1417 1413 1409 1406 1403 1403 1405 1409 1413 1417 1420 1423 1426 1429 1431 1433 1435 1436 1438 1439 1441 1443 1444 1446 1449 1451 1452 1454 1457 1459 1460 1461 1462 1463 1464 1464 1464 1465 1465 1464
1419 1416 1413 1410 1406 1402 1399 1396 1394 1395 1400 1405 1410 1415 1419 1423 1426 1429 1432 1435 1437 1439 1440 1442 1444 1446 1448 1450 1452 1454 1456 1458 1460 1461 1462 1464 1465 1465 1466 1466 1466 1466 1466
1409 1407 1405 1402 1399 1396 1392 1389 1386 1387 1390 1397 1403 1408 1414 1419 1423 1427 1431 1434 1437 1439 1441 1443 1445 1448 1450 1451 1454 1456 1458 1459 1461 1462 1464 1465 1466 1467 1468 1468 1468 1468 1468
1399 1397 1396 1394 1391 1388 1385 1381 1379 1379 1382 1388 1395 1401 1408 1414 1419 1424 1428 1432 1436 1439 1442 1444 1447 1449 1451 1453 1455 1457 1459 1460 1462 1463 1465 1466 1468 1469 1469 1470 1470 1470 1470
1389 1388 1387 1386 1383 1381 1378 1374 1372 1372 1375 1380 1387 1394 1400 1407 1414 1420 1424 1429 1434 1438 1441 1444 1447 1450 1452 1454 1456 1458 1460 1461 1463 1465 1466 1468 1469 1470 1471 1472 1472 1472 1471
1379 1378 1378 1377 1375 1373 1370 1367 1365 1365 1368 1375 1382 1389 1396 1403 1411 1417 1423 1428 1433 1437 1440 1443 1447 1450 1453 1455 1457 1459 1461 1463 1465 1466 1468 1469 1470 1471 1472 1473 1473 1473 1473
1369 1369 1368 1368 1367 1365 1363 1361 1359 1358 1361 1368 1376 1385 1392 1400 1407 1414 1420 1426 1431 1435 1439 1442 1446 1450 1453 1456 1458 1460 1462 1464 1465 1467 1469 1470 1471 1472 1473 1473 1474 1474 1474
1359 1359 1359 1359 1359 1358 1357 1355 1354 1353 1356 1361 1371 1380 1389 1397 1404 1411 1417 1423 1427 1432 1436 1440 1445 1449 1452 1455 1458 1460 1462 1464 1466 1468 1469 1471 1472 1472 1473 1474 1474 1474 1474
1349 1350 1350 1351 1352 1352 1350 1349 1348 1348 1351 1357 1365 1375 1385 1394 1401 1408 1413 1418 1423 1428 1433 1438 1443 1447 1451 1454 1457 1459 1462 1464 1466 1468 1470 1471 1472 1473 1473 1474 1474 1475 1475
1340 1342 1343 1343 1344 1344 1343 1343 1343 1344 1347 1352 1359 1368 1378 1387 1394 1401 1408 1414 1420 1425 1430 1435 1440 1445 1449 1452 1455 1458 1461 1464 1466 1468 1469 1471 1472 1473 1473 1474 1474 1475 1475
1332 1334 1336 1337 1338 1338 1337 1337 1338 1340 1343 1349 1356 1365 1374 1382 1390 1397 1403 1410 1416 1422 1427 1433 1438 1443 1447 1450 1454 1457 1459 1462 1465 1467 1469 1470 1471 1472 1473 1474 1474 1474 1475
1326 1328 1330 1331 1332 1332 1332 1333 1334 1336 1341 1347 1353 1362 1372 1380 1386 1393 1400 1406 1413 1419 1425 1430 1435 1440 1444 1448 1451 1454 1457 1460 1463 1465 1467 1469 1470 1471 1472 1473 1473 1474 1474
1322 1323 1325 1326 1327 1327 1327 1328 1330 1334 1339 1345 1351 1359 1368 1376 1383 1390 1397 1403 1410 1416 1422 1427 1432 1437 1441 1445 1449 1452 1455 1458 1460 1463 1465 1467 1468 1470 1471 1471 1472 1472 1472
1318 1319 1321 1321 1322 1323 1323 1325 1328 1333 1338 1344 1350 1358 1365 1373 1381 1388 1395 1401 1407 1413 1418 1424 1428 1433 1438 1442 1446 1449 1452 1455 1458 1460 1463 1464 1466 1467 1468 1468 1469 1469 1470
1316 1317 1318 1318 1319 1319 1320 1323 1327 1332 1337 1343 1350 1357 1364 1371 1378 1386 1392 1398 1404 1410 1415 1420 1425 1429 1434 1438 1442 1446 1449 1452 1455 1457 1459 1461 1462 1463 1464 1465 1465 1466 1466
1314 1314 1315 1315 1315 1317 1319 1322 1326 1332 1337 1344 1350 1356 1363 1370 1376 1383 1389 1395 1401 1407 1412 1417 1421 1426 1430 1434 1438 1442 1445 1448 1451 1453 1455 1457 1458 1459 1460 1460 1460 1461 1461